COSMOS 886 DEB

Satellite information

Favourite Embed

Satellite Type and Status

DEBRISIN ORBIT

Key statistics

Satellite COSMOS 886 DEB at a glance.

Uptime

17837

Days in orbit

Revolutions

≈ 13.2

Per day

Orbit

LEO

Low Earth Orbit

Inclination

65.9

Latest

Satellite identification and parameters

Extended collection of information and parameters for COSMOS 886 DEB.

Object identification

Identified? True

Debris? True

Object name: COSMOS 886 DEB

International designator: 1976-126CD

Object number (NORAD): 19475

Object ID (CCSDS): 19475

Country: COMMONWEALTH OF INDEPENDENT STATES (CIS)

Current information (Y/N): Y

RCS size: SMALL

Orbital parameters

Period: 109.332 minutes

Inclination: 65.8531 deg

SMA: 7573.976 km

Apoapsis: 1804.271 km

Periapsis: 587.412 km

RAAN: 153.1436 deg

Eccentricy: 0.08033155

Argument of periapsis: 326.7709 deg

Mean anomaly: 28.5223 deg

Mean motion: 13.17094213 rev/day

Mean motion (dot): 0.00002202 rev/day2

B* drag term: 0.001063501 1/REarth

Two-line elements (TLE)

Creation date: Oct. 27, 2025, 2:46 a.m.

Reference frame: TEME

Reference center: EARTH

Epoch: Oct. 26, 2025, 8:41 p.m. UTC

TLE line 0: 0 COSMOS 886 DEB

TLE line 1: 1 19475U 76126CD 25299.86183869 .00002202 00000-0 10635-2 0 9997

TLE line 2: 2 19475 65.8531 153.1436 0803316 326.7709 28.5223 13.17094213678873

Live tracking on map

Real-time ground track for satellite COSMOS 886 DEB.

In-orbit conjunctions

A list of the most updated potential collisions computed for object COSMOS 886 DEB.

Target Orbit TCA Probability of collision Miss distance Type
COSMOS 980 LEO 2025-04-07 16:32:05 0.0002159431 446.0 (m) PAYLOAD

Associated space launch

Second generation ASAT satellite

COSMOS 886 DEB was lifted into orbit during the mission ‘Tsiklon-2 | IS-A 4’, on board a Tsiklon-2 space rocket.

The launch took place on Dec. 27, 1976, 12:05 p.m. from 90.

For more information about the launch, click the button.

Launch to space Tsiklon-2 | IS-A 4
Tsiklon-2 | IS-A 4

Agency: N/A

Status: Launch Successful

Launch date: Dec. 27, 1976, 12:05 p.m. UTC

Rocket: Tsiklon-2

Launch pad: 90

Location: Baikonur Cosmodrome, Republic of Kazakhstan

...

Latest news about this satellite

There are no fresh news available about this satellite. Check back as we update our databases every day.


Newsletter sign-up

Weekly statistics, charts and insights to help you stay on top of the space industry.